Warsaw, IN

10:44 AM EDT on April 23, 2018 (GMT -0400)
Warsaw Municipal

Weather History for KASW - January, 2013

Change the Weather History Date:

Thursday, January 17, 2013

  Actual Average Record
Temperature  
Mean Temperature 26 °F -  
Max Temperature 33 °F 27 °F 57 °F (1952)
Min Temperature 19 °F 13 °F -18 °F (1977)
Degree Days  
Heating Degree Days 39    
Moisture  
Dew Point 22 °F    
Average Humidity 74    
Maximum Humidity 93    
Minimum Humidity 56    
Precipitation  
Precipitation 0.00 in - - ()
Sea Level Pressure  
Sea Level Pressure 30.21 in    
Wind  
Wind Speed 8 mph (NW)    
Max Wind Speed 18 mph    
Max Gust Speed 24 mph    
Visibility 10 miles    
Events      
Averages and records for this station are not official NWS values.
T = Trace of Precipitation, MM = Missing Value Source: NWS Daily Summary

Daily Weather History Graph

Daily Weather History Graph

Search for Another Location

Airport or City:

Astronomy

Jan. 17, 2013 Rise Set
Actual Time 8:05 AM EST 5:41 PM EST
Civil Twilight 7:35 AM EST 6:12 PM EST
Nautical Twilight 7:01 AM EST 6:45 PM EST
Astronomical Twilight 6:28 AM EST 7:18 PM EST
Moon 11:07 AM EST (1/17) No Moon Set
Length of Visible Light 10h 36m
Length of Day
9h 36m
Waxing Crescent, 37% of the Moon is Illuminated
Jan 17
Waxing Crescent
Jan 18
First Quarter
Jan 26
Full
Feb 3
Last Quarter
Feb 10
New

Hourly Weather History & Observations

Time (EST) Temp. Windchill Dew Point Humidity Pressure Visibility Wind Dir Wind Speed Gust Speed Precip Events Conditions
12:15 AM 32.0 °F 24.2 °F 26.6 °F 80% 30.04 in 10.0 mi West 9.2 mph - N/A   Mostly Cloudy
12:35 AM 32.0 °F 25.6 °F 26.6 °F 80% 30.04 in 10.0 mi West 6.9 mph - N/A   Overcast
12:55 AM 30.2 °F 24.3 °F 24.8 °F 80% 30.04 in 10.0 mi West 5.8 mph - N/A   Overcast
1:15 AM 28.4 °F 21.2 °F 24.8 °F 86% 30.05 in 10.0 mi West 6.9 mph - N/A   Scattered Clouds
1:35 AM 28.4 °F 23.3 °F 24.8 °F 86% 30.05 in 10.0 mi West 4.6 mph - N/A   Clear
2:15 AM 30.2 °F 25.4 °F 26.6 °F 86% 30.07 in 10.0 mi West 4.6 mph - N/A   Mostly Cloudy
2:35 AM 30.2 °F 24.3 °F 26.6 °F 86% 30.07 in 10.0 mi West 5.8 mph - N/A   Overcast
2:55 AM 30.2 °F 26.7 °F 26.6 °F 86% 30.09 in 10.0 mi West 3.5 mph - N/A   Overcast
3:15 AM 30.2 °F - 26.6 °F 86% 30.10 in 10.0 mi Calm Calm - N/A   Overcast
3:35 AM 30.2 °F - 26.6 °F 86% 30.10 in 10.0 mi Calm Calm - N/A   Overcast
3:55 AM 30.2 °F - 26.6 °F 86% 30.10 in 10.0 mi Calm Calm - N/A   Overcast
4:15 AM 32.0 °F 28.7 °F 28.4 °F 87% 30.11 in 10.0 mi SW 3.5 mph - N/A   Overcast
4:35 AM 32.0 °F - 28.4 °F 87% 30.12 in 10.0 mi Calm Calm - N/A   Overcast
4:55 AM 30.2 °F 26.7 °F 26.6 °F 86% 30.12 in 10.0 mi WSW 3.5 mph - N/A   Overcast
5:15 AM 30.2 °F 26.7 °F 26.6 °F 86% 30.12 in 10.0 mi West 3.5 mph - N/A   Scattered Clouds
5:35 AM 28.4 °F 23.3 °F 26.6 °F 93% 30.13 in 10.0 mi West 4.6 mph - N/A   Clear
5:55 AM 28.4 °F 21.2 °F 26.6 °F 93% 30.12 in 10.0 mi NW 6.9 mph - N/A   Clear
6:15 AM 30.2 °F 23.4 °F 26.6 °F 86% 30.13 in 10.0 mi WNW 6.9 mph - N/A   Clear
6:35 AM 30.2 °F 22.6 °F 26.6 °F 86% 30.13 in 10.0 mi NW 8.1 mph - N/A   Clear
6:55 AM 30.2 °F 21.9 °F 28.4 °F 93% 30.14 in 10.0 mi NW 9.2 mph - N/A   Clear
7:15 AM 30.2 °F 22.6 °F 28.4 °F 93% 30.15 in 10.0 mi NW 8.1 mph - N/A   Clear
7:35 AM 30.2 °F 21.3 °F 28.4 °F 93% 30.16 in 10.0 mi NNW 10.4 mph - N/A   Clear
7:55 AM 30.2 °F 21.9 °F 26.6 °F 86% 30.16 in 10.0 mi NNW 9.2 mph - N/A   Clear
8:15 AM 32.0 °F 24.2 °F 26.6 °F 80% 30.18 in 10.0 mi NNW 9.2 mph 16.1 mph N/A   Clear
8:35 AM 30.2 °F 23.4 °F 26.6 °F 86% 30.18 in 10.0 mi NW 6.9 mph - N/A   Clear
8:55 AM 30.2 °F 23.4 °F 26.6 °F 86% 30.19 in 10.0 mi NW 6.9 mph - N/A   Clear
9:15 AM 32.0 °F 24.8 °F 26.6 °F 80% 30.20 in 10.0 mi NW 8.1 mph 17.3 mph N/A   Clear
9:35 AM 32.0 °F 25.6 °F 26.6 °F 80% 30.20 in 10.0 mi NW 6.9 mph - N/A   Clear
9:55 AM 32.0 °F 24.2 °F 26.6 °F 80% 30.21 in 10.0 mi NW 9.2 mph - N/A   Clear
10:15 AM 32.0 °F 22.5 °F 26.6 °F 80% 30.23 in 10.0 mi NW 12.7 mph - N/A   Clear
10:35 AM 33.8 °F 24.8 °F 26.6 °F 75% 30.23 in 10.0 mi NW 12.7 mph 18.4 mph N/A   Clear
10:55 AM 33.8 °F 24.3 °F 26.6 °F 75% 30.23 in 10.0 mi NW 13.8 mph 19.6 mph N/A   Clear
11:15 AM 33.8 °F 26.4 °F 24.8 °F 70% 30.24 in 10.0 mi NW 9.2 mph - N/A   Clear
11:35 AM 33.8 °F 24.3 °F 23.0 °F 65% 30.24 in 10.0 mi NNW 13.8 mph 18.4 mph N/A   Clear
11:55 AM 33.8 °F 24.3 °F 23.0 °F 65% 30.23 in 10.0 mi North 13.8 mph 17.3 mph N/A   Clear
12:15 PM 33.8 °F 24.8 °F 21.2 °F 60% 30.22 in 10.0 mi NW 12.7 mph 18.4 mph N/A   Clear
12:35 PM 33.8 °F 23.9 °F 21.2 °F 60% 30.21 in 10.0 mi WNW 15.0 mph - N/A   Clear
12:55 PM 33.8 °F 23.5 °F 23.0 °F 65% 30.21 in 10.0 mi NW 16.1 mph - N/A   Clear
1:15 PM 33.8 °F 25.8 °F 23.0 °F 65% 30.21 in 10.0 mi NW 10.4 mph 17.3 mph N/A   Clear
1:35 PM 33.8 °F 24.8 °F 21.2 °F 60% 30.21 in 10.0 mi NW 12.7 mph 19.6 mph N/A   Clear
1:55 PM 33.8 °F 23.9 °F 21.2 °F 60% 30.21 in 10.0 mi NW 15.0 mph 18.4 mph N/A   Clear
2:15 PM 33.8 °F 23.9 °F 19.4 °F 56% 30.20 in 10.0 mi NNW 15.0 mph 21.9 mph N/A   Clear
2:35 PM 33.8 °F 23.5 °F 19.4 °F 56% 30.20 in 10.0 mi NW 16.1 mph 23.0 mph N/A   Clear
2:55 PM 33.8 °F 24.8 °F 19.4 °F 56% 30.20 in 10.0 mi NNW 12.7 mph - N/A   Clear
3:15 PM 32.0 °F 21.2 °F 19.4 °F 60% 30.21 in 10.0 mi NW 16.1 mph - N/A   Clear
3:35 PM 32.0 °F 22.1 °F 19.4 °F 60% 30.22 in 10.0 mi NNW 13.8 mph 21.9 mph N/A   Clear
3:55 PM 32.0 °F 20.5 °F 19.4 °F 60% 30.23 in 10.0 mi NW 18.4 mph 23.0 mph N/A   Clear
4:15 PM 32.0 °F 20.5 °F 19.4 °F 60% 30.23 in 10.0 mi NW 18.4 mph - N/A   Clear
4:35 PM 30.2 °F 19.8 °F 17.6 °F 60% 30.24 in 10.0 mi NNW 13.8 mph 24.2 mph N/A   Clear
4:55 PM 30.2 °F 18.1 °F 17.6 °F 60% 30.25 in 10.0 mi NW 18.4 mph 24.2 mph N/A   Clear
5:15 PM 28.4 °F 17.0 °F 17.6 °F 64% 30.27 in 10.0 mi NNW 15.0 mph - N/A   Clear
5:35 PM 26.6 °F 14.7 °F 17.6 °F 69% 30.28 in 10.0 mi NNW 15.0 mph 20.7 mph N/A   Scattered Clouds
5:55 PM 26.6 °F 15.2 °F 15.8 °F 64% 30.30 in 10.0 mi NNW 13.8 mph 21.9 mph N/A   Mostly Cloudy
6:15 PM 26.6 °F 16.8 °F 14.0 °F 59% 30.30 in 10.0 mi NNW 10.4 mph 17.3 mph N/A   Mostly Cloudy
6:35 PM 24.8 °F 14.6 °F 14.0 °F 64% 30.31 in 10.0 mi NNW 10.4 mph 17.3 mph N/A   Scattered Clouds
6:55 PM 24.8 °F 16.9 °F 14.0 °F 64% 30.32 in 10.0 mi NNW 6.9 mph - N/A   Scattered Clouds
7:15 PM 23.0 °F 11.7 °F 14.0 °F 68% 30.32 in 10.0 mi NW 11.5 mph 16.1 mph N/A   Scattered Clouds
7:35 PM 23.0 °F 13.9 °F 14.0 °F 68% 30.33 in 10.0 mi NW 8.1 mph 17.3 mph N/A   Clear
7:55 PM 23.0 °F 15.8 °F 14.0 °F 68% 30.34 in 10.0 mi NW 5.8 mph - N/A   Clear
8:15 PM 23.0 °F 14.7 °F 14.0 °F 68% 30.35 in 10.0 mi NNW 6.9 mph - N/A   Clear
8:35 PM 21.2 °F 12.6 °F 12.2 °F 68% 30.36 in 10.0 mi WNW 6.9 mph - N/A   Clear
9:15 PM 19.4 °F 12.8 °F 12.2 °F 74% 30.36 in 10.0 mi WNW 4.6 mph - N/A   Clear
9:35 PM 19.4 °F 12.8 °F 12.2 °F 74% 30.36 in 10.0 mi West 4.6 mph - N/A   Clear
9:55 PM 19.4 °F 14.3 °F 12.2 °F 74% 30.35 in 10.0 mi West 3.5 mph - N/A   Scattered Clouds
10:15 PM 19.4 °F 12.8 °F 12.2 °F 74% 30.35 in 10.0 mi WSW 4.6 mph - N/A   Scattered Clouds
10:35 PM 19.4 °F 10.4 °F 14.0 °F 80% 30.36 in 10.0 mi WSW 6.9 mph - N/A   Scattered Clouds
10:55 PM 21.2 °F 12.6 °F 14.0 °F 74% 30.36 in 10.0 mi WSW 6.9 mph - N/A   Clear